Location: Mexico
(19.4000°N, 99.1500°W)
Time: 09:38:52
(UTC-06:00)

ISS - Pass Details

Date: 18 February 2018
Orbit: 403 x 406 km, 51.6° (Epoch: 26 February)

Event Time Altitude Azimuth Distance (km) Brightness Sun altitude
Rises 18:58:27 0° 295° (WNW) 2,307 1.0 -5.6°
Reaches altitude 10° 19:01:16 10° 269° (W) 1,447 0.7 -6.3°
Maximum altitude 19:03:01 14° 236° (SW) 1,239 -0.2 -6.7°
Drops below altitude 10° 19:04:46 10° 203° (SSW) 1,446 -0.6 -7.1°
Sets 19:07:35 0° 176° (S) 2,303 0.1 -7.7°
